Location: *
(2.5500°S, 65.9667°W)
Time: 13:09:31
(UTC+00:00)

XW-2D - Pass Details

Date: 01 July 2022
Orbit: 495 x 515 km, 97.5° (Epoch: 15 August)

Event Time Altitude Azimuth Distance (km) Brightness Sun altitude
Rises 22:50:24 0° 197° (SSW) 2,585 ? -6.2°
Reaches altitude 10° 22:53:07 10° 220° (SW) 1,702 ? -6.8°
Maximum altitude 22:55:22 16° 258° (WSW) 1,384 ? -7.3°
Drops below altitude 10° 22:57:37 10° 296° (WNW) 1,702 ? -7.8°
Sets 23:00:21 0° 319° (NW) 2,586 ? -8.5°
